Location: Castrojimeno
(41.3966°N, 3.8473°W)
Time: 21:05:12
(UTC+00:00)

Cosmos 2100 Rocket - Pass Details

Date: 15 May 2026
Orbit: 956 x 999 km, 82.9° (Epoch: 8 June)

Event Time Altitude Azimuth Distance (km) Brightness Sun altitude
Rises 19:55:11 0° 186° (S) 3,648 6.7 -5.4°
Reaches altitude 10° 19:57:40 10° 187° (S) 2,711 6.1 -5.8°
Maximum altitude 20:03:53 87° 274° (W) 989 4.1 -6.8°
Drops below altitude 10° 20:10:15 10° 7° (N) 2,759 6.8 -7.8°
Sets 20:12:47 0° 8° (N) 3,716 7.4 -8.2°
